Find Starlink 11191

NORAD ID: 60410 Int'l Des: 2024-141 Owner: SPXS Country: US Constellation: starlink operational
LEOCIRCULAR

当前视图

正在加载3D地球...

About Starlink 11191

Starlink 11191 (NORAD 60410) is a starlink constellation satellite (v2 mini d2c) launched Aug 10, 2024 by SPXS of US. It operates in LEO, CIRCULAR orbit with a mass of 960.00 kg.

关于 Starlink 11191

正在加载描述...

即将过境

Passes for default location (London). Set your location on the main map for personalized predictions.

高度历史

Loading altitude history...

两行轨道根数

1 60410U 24141N 26170.11119196 .00000014 00000-0 49724-5 0 9994
2 60410 53.1579 306.1884 0000853 74.9434 285.1679 15.69712065107671
Epoch: Jun 19, 2026 • Age: 6 hours

当前状态

高度 370.7 km
速度 7.69 km/s
星下点 -33.98°S, 121.66°W
发射日期 Aug 10, 2024
运行时间 1.8 years
类型 internet

技术详情

分类 Payload
质量 960.00 kg
干质量 910.00 kg
总质量 960.00 kg
长度 0.30 m
直径 4.10 m
跨度 29.00 m
形状 Box + pan
制造商 SPXS
平台类型 Starlink V2MD
阶段状态 In Orbit
所有者/国家 SPXS/US

Most Searched